When you browse on this site, cookies collect data to enhance your experience and personalize the content and advertising you see.
Visit our Privacy Policy to learn more. By continuing to use the site, you agree to this use of cookies and data.
  • In Hungary
  • List of Countries
  • For 7 days
  • Water Temperature
  • Satellite Maps
  • Weather Map
  • News
  • Weather Widgets
  • user-avatar
    Login

    Hourly Weather Skagen

    Today, 21 January, Monday

    Time Temperature Precipitation Wind Pressure Humidity
    00:00 -2°C° 0 mm 7 mps 762 mmHg 85%
    01:00 -2°C° 0 mm 6 mps 761 mmHg 85%
    02:00 -2°C° 0 mm 6 mps 760 mmHg 83%
    03:00 -2°C° 0 mm 7 mps 760 mmHg 82%
    04:00 -2°C° 0 mm 7 mps 759 mmHg 80%
    05:00 -1°C° 0.3 mm 7 mps 758 mmHg 83%
    06:00 -1°C° 0.3 mm 6 mps 758 mmHg 86%
    07:00 +1°C° 0.3 mm 6 mps 758 mmHg 89%
    08:00 +1°C° 0 mm 5 mps 758 mmHg 89%
    09:00 +2°C° 0 mm 3 mps 758 mmHg 90%
    10:00 +3°C° 0 mm 2 mps 758 mmHg 90%
    11:00 +2°C° 0 mm 3 mps 757 mmHg 91%
    12:00 +2°C° 0 mm 3 mps 757 mmHg 91%
    13:00 +3°C° 0 mm 4 mps 757 mmHg 91%
    14:00 +1°C° 0 mm 4 mps 758 mmHg 92%
    15:00 +1°C° 0 mm 4 mps 758 mmHg 92%
    16:00 0°C° 0 mm 4 mps 758 mmHg 92%
    17:00 0°C° 0 mm 4 mps 758 mmHg 91%
    18:00 0°C° 0 mm 4 mps 758 mmHg 89%
    19:00 0°C° 0 mm 4 mps 758 mmHg 88%
    20:00 +1°C° 0 mm 3 mps 758 mmHg 88%
    21:00 +1°C° 0 mm 3 mps 758 mmHg 88%
    22:00 +2°C° 0 mm 2 mps 758 mmHg 87%
    23:00 +1°C° 0 mm 2 mps 758 mmHg 88%

    Tomorrow, 22 January, Tuesday

    Time Temperature Precipitation Wind Pressure Humidity
    00:00 +2°C° 0 mm 1 mps 758 mmHg 89%
    01:00 +1°C° 0 mm 0 mps 758 mmHg 90%
    02:00 +2°C° 0 mm 1 mps 757 mmHg 91%
    03:00 +1°C° 0 mm 1 mps 757 mmHg 92%
    04:00 +1°C° 0 mm 1 mps 757 mmHg 92%
    05:00 +1°C° 0 mm 1 mps 756 mmHg 92%
    06:00 +1°C° 0 mm 1 mps 756 mmHg 92%
    07:00 -2°C° 0 mm 2 mps 755 mmHg 92%
    08:00 -1°C° 0 mm 2 mps 755 mmHg 91%
    09:00 -1°C° 0 mm 2 mps 755 mmHg 90%
    10:00 -1°C° 0 mm 3 mps 755 mmHg 89%
    11:00 0°C° 0 mm 3 mps 754 mmHg 88%
    12:00 0°C° 0 mm 4 mps 754 mmHg 86%
    13:00 +1°C° 0 mm 5 mps 754 mmHg 85%
    14:00 0°C° 0 mm 5 mps 754 mmHg 86%
    15:00 -1°C° 0 mm 6 mps 753 mmHg 87%
    16:00 -2°C° 0 mm 7 mps 753 mmHg 87%
    17:00 -1°C° 0 mm 7 mps 753 mmHg 85%
    18:00 -1°C° 0 mm 8 mps 753 mmHg 83%
    19:00 -1°C° 0 mm 8 mps 753 mmHg 82%
    20:00 -1°C° 0 mm 8 mps 753 mmHg 82%
    21:00 -3°C° 0 mm 9 mps 753 mmHg 82%
    22:00 -3°C° 0 mm 9 mps 753 mmHg 82%
    23:00 -3°C° 0 mm 9 mps 752 mmHg 80%

    Day after tomorrow, 23 January, Wednesday

    Time Temperature Precipitation Wind Pressure Humidity
    00:00 -3°C° 0 mm 9 mps 752 mmHg 77%
    01:00 -3°C° 0 mm 9 mps 752 mmHg 75%
    02:00 -3°C° 0 mm 9 mps 752 mmHg 73%
    03:00 -3°C° 0 mm 9 mps 752 mmHg 72%
    04:00 -4°C° 0 mm 9 mps 752 mmHg 71%
    05:00 -4°C° 0 mm 9 mps 752 mmHg 72%
    06:00 -4°C° 0 mm 8 mps 752 mmHg 73%
    07:00 -4°C° 0 mm 8 mps 753 mmHg 74%
    08:00 -4°C° 0 mm 8 mps 753 mmHg 74%
    09:00 -4°C° 0 mm 8 mps 753 mmHg 74%
    10:00 -4°C° 0 mm 8 mps 754 mmHg 75%
    11:00 -2°C° 0 mm 7 mps 754 mmHg 73%
    12:00 -2°C° 0 mm 7 mps 754 mmHg 71%
    13:00 -2°C° 0 mm 7 mps 754 mmHg 69%
    14:00 -2°C° 0 mm 7 mps 755 mmHg 71%
    15:00 -2°C° 0 mm 6 mps 755 mmHg 73%
    16:00 -3°C° 0 mm 6 mps 755 mmHg 75%
    17:00 -3°C° 0 mm 6 mps 755 mmHg 76%
    18:00 -3°C° 0 mm 6 mps 756 mmHg 76%
    19:00 -3°C° 0 mm 6 mps 756 mmHg 76%
    20:00 -3°C° 0 mm 6 mps 756 mmHg 75%
    21:00 -3°C° 0 mm 6 mps 757 mmHg 75%
    22:00 -2°C° 0 mm 5 mps 757 mmHg 74%
    23:00 -4°C° 0 mm 5 mps 757 mmHg 74%

    24 January, Thursday

    Time Temperature Precipitation Wind Pressure Humidity
    00:00 -4°C° 0 mm 5 mps 757 mmHg 74%
    01:00 -4°C° 0 mm 5 mps 758 mmHg 75%
    02:00 -4°C° 0 mm 5 mps 758 mmHg 75%
    03:00 -4°C° 0 mm 5 mps 758 mmHg 75%
    04:00 -4°C° 0 mm 5 mps 758 mmHg 75%
    05:00 -4°C° 0 mm 5 mps 758 mmHg 76%
    06:00 -4°C° 0 mm 5 mps 758 mmHg 76%
    07:00 -4°C° 0 mm 5 mps 759 mmHg 77%
    08:00 -4°C° 0 mm 5 mps 759 mmHg 76%
    09:00 -4°C° 0 mm 5 mps 759 mmHg 74%
    10:00 -2°C° 0 mm 5 mps 760 mmHg 73%
    11:00 -2°C° 0 mm 5 mps 760 mmHg 71%
    12:00 -2°C° 0 mm 5 mps 760 mmHg 70%
    13:00 -1°C° 0 mm 5 mps 760 mmHg 68%
    14:00 -1°C° 0 mm 5 mps 760 mmHg 70%
    15:00 -2°C° 0 mm 5 mps 760 mmHg 73%
    16:00 -2°C° 0 mm 5 mps 760 mmHg 75%
    17:00 -2°C° 0 mm 5 mps 760 mmHg 80%
    18:00 -2°C° 0 mm 5 mps 760 mmHg 84%
    19:00 -4°C° 0 mm 5 mps 760 mmHg 89%
    20:00 -2°C° 0 mm 5 mps 760 mmHg 90%
    21:00 -2°C° 0 mm 5 mps 760 mmHg 91%
    22:00 -2°C° 0 mm 5 mps 761 mmHg 92%
    23:00 -2°C° 0 mm 5 mps 760 mmHg 91%

    25 January, Friday

    Time Temperature Precipitation Wind Pressure Humidity
    00:00 -2°C° 0 mm 5 mps 760 mmHg 91%
    01:00 -3°C° 0 mm 6 mps 760 mmHg 90%
    02:00 -3°C° 0 mm 6 mps 760 mmHg 90%
    03:00 -3°C° 0 mm 6 mps 759 mmHg 90%
    04:00 -3°C° 0 mm 6 mps 759 mmHg 90%
    05:00 -3°C° 0 mm 7 mps 758 mmHg 89%
    06:00 -4°C° 0 mm 8 mps 758 mmHg 88%
    07:00 -4°C° 0 mm 9 mps 757 mmHg 87%
    08:00 -4°C° 0 mm 10 mps 757 mmHg 84%
    09:00 -3°C° 0 mm 11 mps 756 mmHg 80%
    10:00 -3°C° 0 mm 12 mps 755 mmHg 76%
    11:00 -4°C° 0.7 mm 13 mps 754 mmHg 79%
    12:00 -4°C° 0.7 mm 15 mps 753 mmHg 81%
    13:00 -4°C° 0.7 mm 17 mps 751 mmHg 84%
    14:00 -4°C° 1.5 mm 17 mps 750 mmHg 85%
    15:00 -4°C° 1.5 mm 17 mps 749 mmHg 86%
    16:00 -3°C° 1.5 mm 17 mps 747 mmHg 87%
    17:00 -1°C° 0.7 mm 14 mps 747 mmHg 87%
    18:00 -1°C° 0.7 mm 11 mps 746 mmHg 88%
    19:00 +1°C° 0.7 mm 9 mps 746 mmHg 89%
    20:00 +1°C° 0.1 mm 8 mps 746 mmHg 87%
    21:00 +1°C° 0.1 mm 8 mps 746 mmHg 86%
    22:00 +1°C° 0.1 mm 8 mps 746 mmHg 84%
    23:00 +1°C° 0 mm 9 mps 745 mmHg 83%

    26 January, Saturday

    Time Temperature Precipitation Wind Pressure Humidity
    00:00 0°C° 0 mm 9 mps 745 mmHg 83%
    01:00 0°C° 0 mm 10 mps 745 mmHg 82%
    02:00 0°C° 0.1 mm 10 mps 744 mmHg 81%
    03:00 +1°C° 0.1 mm 10 mps 744 mmHg 81%
    04:00 +1°C° 0.1 mm 11 mps 743 mmHg 80%
    05:00 +1°C° 0 mm 11 mps 743 mmHg 79%
    06:00 0°C° 0 mm 12 mps 743 mmHg 77%
    07:00 0°C° 0 mm 13 mps 743 mmHg 75%
    08:00 0°C° 0 mm 13 mps 743 mmHg 75%
    09:00 0°C° 0 mm 12 mps 743 mmHg 74%
    10:00 0°C° 0 mm 12 mps 743 mmHg 73%
    11:00 0°C° 0 mm 12 mps 743 mmHg 73%
    12:00 0°C° 0 mm 12 mps 743 mmHg 72%
    13:00 0°C° 0 mm 12 mps 743 mmHg 72%
    14:00 +1°C° 0 mm 11 mps 743 mmHg 72%
    15:00 +1°C° 0 mm 11 mps 743 mmHg 73%
    16:00 -1°C° 0 mm 11 mps 743 mmHg 74%
    17:00 0°C° 0 mm 10 mps 743 mmHg 77%
    18:00 0°C° 0 mm 9 mps 743 mmHg 79%
    19:00 -1°C° 0 mm 9 mps 743 mmHg 81%
    20:00 -1°C° 0 mm 9 mps 743 mmHg 82%
    21:00 -1°C° 0 mm 8 mps 743 mmHg 84%
    22:00 -1°C° 0 mm 8 mps 743 mmHg 85%
    23:00 -1°C° 0 mm 8 mps 743 mmHg 85%
    Show more